Tiempo cada hora 3 internacional

Hoy, 25 Octubre, Domingo

Tiempo Temperatura Precipitaciones Viento Presión Humedad
00:00 +5°C° 0 mm 4 mps 760 mmHg 51%
01:00 +6°C° 0 mm 4 mps 760 mmHg 51%
02:00 +6°C° 0 mm 4 mps 760 mmHg 50%
03:00 +6°C° 0 mm 4 mps 760 mmHg 49%
04:00 +7°C° 0 mm 4 mps 760 mmHg 48%
05:00 +7°C° 0 mm 4 mps 760 mmHg 47%
06:00 +7°C° 0 mm 5 mps 760 mmHg 46%
07:00 +7°C° 0 mm 5 mps 760 mmHg 46%
08:00 +9°C° 0 mm 6 mps 760 mmHg 42%
09:00 +11°C° 0 mm 6 mps 760 mmHg 38%
10:00 +14°C° 0 mm 7 mps 760 mmHg 34%
11:00 +15°C° 0 mm 7 mps 760 mmHg 32%
12:00 +17°C° 0 mm 7 mps 759 mmHg 30%
13:00 +18°C° 0 mm 7 mps 759 mmHg 27%
14:00 +19°C° 0 mm 6 mps 759 mmHg 28%
15:00 +17°C° 0 mm 5 mps 758 mmHg 29%
16:00 +18°C° 0 mm 4 mps 758 mmHg 29%
17:00 +17°C° 0 mm 4 mps 758 mmHg 32%
18:00 +14°C° 0 mm 4 mps 758 mmHg 34%
19:00 +13°C° 0 mm 4 mps 758 mmHg 37%
20:00 +13°C° 0 mm 5 mps 758 mmHg 36%
21:00 +13°C° 0 mm 5 mps 758 mmHg 35%
22:00 +13°C° 0 mm 6 mps 757 mmHg 35%
23:00 +12°C° 0 mm 5 mps 757 mmHg 34%

Mañana, 26 Octubre, Lunes

Tiempo Temperatura Precipitaciones Viento Presión Humedad
00:00 +10°C° 0 mm 5 mps 757 mmHg 34%
01:00 +9°C° 0 mm 5 mps 756 mmHg 34%
02:00 +9°C° 0 mm 5 mps 756 mmHg 34%
03:00 +8°C° 0 mm 5 mps 756 mmHg 35%
04:00 +7°C° 0 mm 5 mps 755 mmHg 35%
05:00 +7°C° 0 mm 5 mps 755 mmHg 36%
06:00 +7°C° 0 mm 5 mps 755 mmHg 37%
07:00 +7°C° 0 mm 5 mps 754 mmHg 38%
08:00 +10°C° 0 mm 7 mps 754 mmHg 33%
09:00 +13°C° 0 mm 8 mps 753 mmHg 27%
10:00 +17°C° 0 mm 9 mps 753 mmHg 22%
11:00 +18°C° 0 mm 9 mps 752 mmHg 21%
12:00 +19°C° 0 mm 9 mps 752 mmHg 20%
13:00 +21°C° 0 mm 10 mps 751 mmHg 19%
14:00 +21°C° 0 mm 9 mps 751 mmHg 24%
15:00 +20°C° 0 mm 8 mps 751 mmHg 28%
16:00 +18°C° 0 mm 8 mps 751 mmHg 33%
17:00 +16°C° 0 mm 7 mps 751 mmHg 46%
18:00 +14°C° 0 mm 6 mps 751 mmHg 59%
19:00 +11°C° 0 mm 6 mps 751 mmHg 71%
20:00 +10°C° 0 mm 5 mps 752 mmHg 76%
21:00 +10°C° 0 mm 5 mps 752 mmHg 81%
22:00 +10°C° 0 mm 4 mps 752 mmHg 86%
23:00 +8°C° 0 mm 4 mps 752 mmHg 82%

Pasado mañana, 27 Octubre, Martes

Tiempo Temperatura Precipitaciones Viento Presión Humedad
00:00 +8°C° 0 mm 3 mps 752 mmHg 78%
01:00 +7°C° 0 mm 3 mps 751 mmHg 75%
02:00 +5°C° 0 mm 3 mps 751 mmHg 74%
03:00 +5°C° 0 mm 3 mps 751 mmHg 74%
04:00 +4°C° 0 mm 3 mps 751 mmHg 73%
05:00 +4°C° 0 mm 3 mps 751 mmHg 71%
06:00 +4°C° 0 mm 3 mps 751 mmHg 69%
07:00 +4°C° 0 mm 4 mps 751 mmHg 67%
08:00 +6°C° 0 mm 5 mps 751 mmHg 60%
09:00 +8°C° 0 mm 7 mps 752 mmHg 54%
10:00 +10°C° 0 mm 9 mps 752 mmHg 47%
11:00 +8°C° 0 mm 9 mps 752 mmHg 42%
12:00 +9°C° 0 mm 8 mps 752 mmHg 36%
13:00 +7°C° 0 mm 8 mps 753 mmHg 31%
14:00 +8°C° 0 mm 7 mps 753 mmHg 29%
15:00 +7°C° 0 mm 6 mps 754 mmHg 28%
16:00 +5°C° 0 mm 6 mps 754 mmHg 26%
17:00 +5°C° 0 mm 5 mps 754 mmHg 30%
18:00 +3°C° 0 mm 4 mps 755 mmHg 34%
19:00 +1°C° 0 mm 3 mps 755 mmHg 38%
20:00 +1°C° 0 mm 3 mps 756 mmHg 40%
21:00 +1°C° 0 mm 3 mps 756 mmHg 42%
22:00 0°C° 0 mm 3 mps 756 mmHg 44%
23:00 0°C° 0 mm 3 mps 756 mmHg 48%

28 Octubre, Miércoles

Tiempo Temperatura Precipitaciones Viento Presión Humedad
00:00 0°C° 0 mm 3 mps 756 mmHg 52%
01:00 0°C° 0 mm 3 mps 757 mmHg 56%
02:00 -1°C° 0 mm 3 mps 757 mmHg 59%
03:00 -1°C° 0 mm 3 mps 757 mmHg 63%
04:00 -1°C° 0 mm 3 mps 757 mmHg 67%
05:00 -1°C° 0 mm 3 mps 758 mmHg 68%
06:00 -2°C° 0 mm 4 mps 758 mmHg 70%
07:00 -2°C° 0 mm 4 mps 759 mmHg 71%
08:00 0°C° 0 mm 4 mps 759 mmHg 64%
09:00 +2°C° 0 mm 5 mps 760 mmHg 57%
10:00 +3°C° 0 mm 6 mps 760 mmHg 50%
11:00 +4°C° 0 mm 6 mps 760 mmHg 47%
12:00 +4°C° 0 mm 6 mps 760 mmHg 44%
13:00 +5°C° 0 mm 6 mps 761 mmHg 41%
14:00 +4°C° 0 mm 6 mps 761 mmHg 43%
15:00 +5°C° 0 mm 5 mps 761 mmHg 44%
16:00 +3°C° 0 mm 5 mps 762 mmHg 46%
17:00 +2°C° 0 mm 5 mps 762 mmHg 52%
18:00 0°C° 0 mm 4 mps 763 mmHg 58%
19:00 -2°C° 0 mm 4 mps 763 mmHg 64%
20:00 -2°C° 0 mm 3 mps 763 mmHg 67%
21:00 -2°C° 0 mm 3 mps 764 mmHg 69%
22:00 -4°C° 0 mm 3 mps 764 mmHg 72%
23:00 -4°C° 0 mm 3 mps 764 mmHg 74%

29 Octubre, Jueves

Tiempo Temperatura Precipitaciones Viento Presión Humedad
00:00 -5°C° 0 mm 3 mps 765 mmHg 76%
01:00 -6°C° 0 mm 3 mps 765 mmHg 78%
02:00 -6°C° 0 mm 3 mps 765 mmHg 79%
03:00 -6°C° 0 mm 3 mps 765 mmHg 80%
04:00 -7°C° 0 mm 3 mps 766 mmHg 81%
05:00 -7°C° 0 mm 3 mps 766 mmHg 81%
06:00 -7°C° 0 mm 3 mps 767 mmHg 81%
07:00 -8°C° 0 mm 3 mps 767 mmHg 80%
08:00 -7°C° 0 mm 4 mps 767 mmHg 67%
09:00 -4°C° 0 mm 4 mps 768 mmHg 54%
10:00 -2°C° 0 mm 5 mps 768 mmHg 42%
11:00 -1°C° 0 mm 5 mps 768 mmHg 37%
12:00 0°C° 0 mm 5 mps 768 mmHg 32%
13:00 +1°C° 0 mm 5 mps 768 mmHg 27%
14:00 +1°C° 0 mm 4 mps 768 mmHg 28%
15:00 0°C° 0 mm 4 mps 768 mmHg 29%
16:00 0°C° 0 mm 4 mps 769 mmHg 30%
17:00 -2°C° 0 mm 4 mps 769 mmHg 35%
18:00 -4°C° 0 mm 4 mps 769 mmHg 40%
19:00 -5°C° 0 mm 4 mps 770 mmHg 45%
20:00 -7°C° 0 mm 4 mps 770 mmHg 47%
21:00 -7°C° 0 mm 4 mps 770 mmHg 48%
22:00 -7°C° 0 mm 4 mps 770 mmHg 50%
23:00 -7°C° 0 mm 3 mps 770 mmHg 52%

30 Octubre, Viernes

Tiempo Temperatura Precipitaciones Viento Presión Humedad
00:00 -7°C° 0 mm 3 mps 770 mmHg 54%
01:00 -7°C° 0 mm 3 mps 770 mmHg 55%
02:00 -7°C° 0 mm 3 mps 770 mmHg 57%
03:00 -7°C° 0 mm 3 mps 771 mmHg 58%
04:00 -7°C° 0 mm 3 mps 771 mmHg 60%
05:00 -7°C° 0 mm 3 mps 771 mmHg 61%
06:00 -7°C° 0 mm 3 mps 771 mmHg 63%
07:00 -7°C° 0 mm 3 mps 771 mmHg 64%
08:00 -4°C° 0 mm 3 mps 771 mmHg 55%
09:00 -2°C° 0 mm 4 mps 771 mmHg 45%
10:00 +1°C° 0 mm 4 mps 771 mmHg 35%
11:00 +3°C° 0 mm 4 mps 770 mmHg 30%
12:00 +4°C° 0 mm 4 mps 770 mmHg 26%
13:00 +6°C° 0 mm 5 mps 770 mmHg 21%
14:00 +5°C° 0 mm 5 mps 769 mmHg 21%
15:00 +5°C° 0 mm 4 mps 769 mmHg 22%
16:00 +4°C° 0 mm 4 mps 769 mmHg 22%
17:00 +1°C° 0 mm 4 mps 769 mmHg 26%
18:00 0°C° 0 mm 4 mps 769 mmHg 29%
19:00 -2°C° 0 mm 4 mps 769 mmHg 32%
20:00 -2°C° 0 mm 4 mps 769 mmHg 31%
21:00 -2°C° 0 mm 4 mps 768 mmHg 31%
22:00 -2°C° 0 mm 4 mps 768 mmHg 31%
23:00 -2°C° 0 mm 4 mps 768 mmHg 31%
Mostrar más

Necesitamos Su Consentimiento

Meteoprog y nuestros Proveedores de Servicios pueden almacenar y acceder a sus datos personales como cookies, identificadores de dispositivo u otras tecnologías similares de su dispositivo y procesar dichos datos para personalizar contenido y anuncios, además de ofrecer funciones de redes sociales y analizar el tráfico.

  • Almacenar y/o acceder a información en su dispositivo

    Se puede almacenar o acceder a cookies, identificadores de dispositivo u otra información de su dispositivo para los fines anteriormente indicados.

  • Anuncios y contenido personalizados, medición de anuncios y contenido, percepciones del público, y desarrollo de productos

    Los anuncios y el contenido pueden personalizarse en base a su perfil. Se pueden añadir más datos para personalizar mejor los anuncios y contenidos. Se puede medir el rendimiento de los anuncios y contenidos. Se puede obtener la percepción sobre el público que ha visto los anuncios y contenidos. Dichos datos pueden usarse para desarrollar o mejorar la experiencia del usuario, sistemas y software.

Al hacer clic en ‘Estoy De Acuerdo’ usted permitirá el uso de las cookies, identificadores de dispositivo, balizas web u otras tecnologías similares indicadas. Su configuración puede cambiarse desde el navegador de su dispositivo.

Para ciertos fines, los intereses legítimos pueden ser considerados por encima del consentimiento. Puede leer más sobre ello en nuestra Política de Privacidad y Cookies.